| time (UTC) | temp F | wind direction | speed MPH | gust MPH | rain 1hr in | rain 24hr in | rain mn in | humidity % | barometer mb |
| 20260503034534 | 56 | 0.0 | 0.0 | 0.00 | 0.00 | 0.00 | 58 | 1021.5 | |
| 20260503032534 | 55 | 0.0 | 0.0 | 0.00 | 0.00 | 0.00 | 57 | 1021.5 | |
| 20260503030534 | 56 | 0.0 | 0.0 | 0.00 | 0.00 | 0.00 | 56 | 1021.6 | |
| 20260503024533 | 56 | 0.0 | 0.0 | 0.00 | 0.00 | 0.00 | 56 | 1021.7 | |
| 20260503022533 | 57 | 0.0 | 0.0 | 0.00 | 0.00 | 0.00 | 55 | 1021.9 | |
| 20260503020533 | 56 | 0.0 | 0.0 | 0.00 | 0.00 | 0.00 | 56 | 1022.1 | |
| 20260503014532 | 57 | 0.0 | 0.0 | 0.00 | 0.00 | 0.00 | 54 | 1022.1 | |
| 20260503012532 | 56 | 0.0 | 0.0 | 0.00 | 0.00 | 0.00 | 56 | 1022.1 | |
| 20260503010532 | 57 | 0.0 | 0.0 | 0.00 | 0.00 | 0.00 | 54 | 1022.3 | |
| 20260503004531 | 57 | 0.0 | 0.0 | 0.00 | 0.00 | 0.00 | 54 | 1022.5 | |
| 20260503002531 | 58 | 0.0 | 0.0 | 0.00 | 0.00 | 0.00 | 53 | 1022.7 | |
| 20260503000531 | 58 | 0.0 | 0.0 | 0.00 | 0.00 | 0.00 | 53 | 1023.0 | |
| 20260502234530 | 58 | 0.0 | 0.0 | 0.00 | 0.00 | 0.00 | 51 | 1023.2 | |
| 20260502232530 | 58 | 0.0 | 0.0 | 0.00 | 0.00 | 0.00 | 51 | 1023.3 | |
| 20260502230530 | 59 | 0.0 | 0.0 | 0.00 | 0.00 | 0.00 | 50 | 1023.2 | |
| 20260502224529 | 59 | 0.0 | 0.0 | 0.00 | 0.00 | 0.00 | 50 | 1023.2 | |
| 20260502222529 | 60 | 0.0 | 0.0 | 0.00 | 0.00 | 0.00 | 47 | 1023.1 | |
| 20260502220529 | 59 | 0.0 | 0.0 | 0.00 | 0.00 | 0.00 | 48 | 1023.3 | |
| 20260502214529 | 60 | 0.0 | 0.0 | 0.00 | 0.00 | 0.00 | 47 | 1023.5 | |
| 20260502212528 | 60 | 0.0 | 0.0 | 0.00 | 0.00 | 0.00 | 47 | 1023.3 | |
| 20260502210528 | 61 | 0.0 | 0.0 | 0.00 | 0.00 | 0.00 | 44 | 1023.1 | |
| 20260502204528 | 61 | 0.0 | 0.0 | 0.00 | 0.00 | 0.00 | 43 | 1023.2 | |
| 20260502202527 | 62 | 0.0 | 0.0 | 0.00 | 0.00 | 0.00 | 43 | 1023.4 | |
| 20260502200527 | 63 | 0.0 | 0.0 | 0.00 | 0.00 | 0.00 | 42 | 1023.5 | |
| 20260502194527 | 64 | 0.0 | 0.0 | 0.00 | 0.00 | 0.00 | 41 | 1023.5 | |
| 20260502192526 | 63 | 0.0 | 0.0 | 0.00 | 0.00 | 0.00 | 42 | 1023.2 | |
| 20260502190526 | 64 | 0.0 | 0.0 | 0.00 | 0.00 | 0.00 | 41 | 1023.0 | |
| 20260502184526 | 66 | 0.0 | 0.0 | 0.00 | 0.00 | 0.00 | 40 | 1022.8 | |
| 20260502182525 | 66 | 0.0 | 0.0 | 0.00 | 0.00 | 0.00 | 39 | 1022.7 | |
| 20260502180525 | 67 | 0.0 | 0.0 | 0.00 | 0.00 | 0.00 | 37 | 1022.5 | |
| 20260502162524 | 72 | 0.0 | 0.0 | 0.00 | 0.00 | 0.00 | 33 | 1022.1 | |
| 20260502160523 | 74 | 0.0 | 0.0 | 0.00 | 0.00 | 0.00 | 31 | 1022.2 | |
| 20260502150522 | 75 | 0.0 | 0.0 | 0.00 | 0.00 | 0.00 | 30 | 1022.6 | |
| 20260502130520 | 74 | 0.0 | 0.0 | 0.00 | 0.00 | 0.00 | 31 | 1024.1 | |
| 20260502122520 | 73 | 0.0 | 0.0 | 0.00 | 0.00 | 0.00 | 33 | 1024.6 | |
| 20260502120519 | 71 | 0.0 | 0.0 | 0.00 | 0.00 | 0.00 | 35 | 1024.7 | |
| 20260502114519 | 71 | 0.0 | 0.0 | 0.00 | 0.00 | 0.00 | 35 | 1025.2 | |
| 20260502112519 | 70 | 0.0 | 0.0 | 0.00 | 0.00 | 0.00 | 35 | 1025.5 | |
| 20260502110518 | 68 | 0.0 | 0.0 | 0.00 | 0.00 | 0.00 | 36 | 1025.8 | |
| 20260502104518 | 67 | 0.0 | 0.0 | 0.00 | 0.00 | 0.00 | 37 | 1026.0 | |
| 20260502102518 | 65 | 0.0 | 0.0 | 0.00 | 0.00 | 0.00 | 39 | 1026.3 | |
| 20260502100517 | 65 | 0.0 | 0.0 | 0.00 | 0.00 | 0.00 | 39 | 1026.4 | |
| 20260502090517 | 61 | 0.0 | 0.0 | 0.00 | 0.00 | 0.00 | 45 | 1027.1 | |
| 20260502070515 | 55 | 0.0 | 0.0 | 0.00 | 0.00 | 0.00 | 59 | 1028.0 | |
| 20260502064514 | 54 | 0.0 | 0.0 | 0.00 | 0.00 | 0.00 | 61 | 1028.1 | |
| 20260502062514 | 53 | 0.0 | 0.0 | 0.00 | 0.00 | 0.00 | 61 | 1028.2 | |
| 20260502060514 | 53 | 0.0 | 0.0 | 0.00 | 0.00 | 0.00 | 61 | 1028.4 | |
| 20260502054513 | 52 | 0.0 | 0.0 | 0.00 | 0.00 | 0.00 | 63 | 1028.4 | |
| 20260502052513 | 51 | 0.0 | 0.0 | 0.00 | 0.00 | 0.00 | 62 | 1028.5 | |
| 20260502050513 | 50 | 0.0 | 0.0 | 0.00 | 0.00 | 0.00 | 63 | 1028.5 | |
| 20260502044513 | 51 | 0.0 | 0.0 | 0.00 | 0.00 | 0.00 | 60 | 1028.4 | |
| 20260502042512 | 51 | 0.0 | 0.0 | 0.00 | 0.00 | 0.00 | 62 | 1028.3 | |
| 20260502040512 | 51 | 0.0 | 0.0 | 0.00 | 0.00 | 0.00 | 61 | 1028.3 |